STARLINK-1770, 46383

Orbit data source: Space-Track

STARLINK-1770, 46383 is a payload satellite owned by SpaceX/Seattle (US) in LEO that was launched on Thu, 03 Sep 2020 UTC via an FALCON 9 launch vehicle from the Air Force Eastern Test Range (AFETR). Payload-class satellites include a variety of spacecraft equipped with specific instruments for various scientific and technological missions. These include communications satellites like Starlink; space stations such as the ISS; scientific satellites like the Hubble; Earth observation satellites from companies like Planet Labs, Umbra, and HawkEye 360; GPS; miniature CubeSats for education and research; and military/defense satellites.

Loading next visibility...
Identifier
46383, 2020-062BL
Orbit
LEO
Country
Flag of USUS
Related business
Manufacturer
SpaceX/Seattle
Mission
Partially operational Commercial Communications
Bus & Motor
STARLINK, Unknown motor
Mass
260 kg wet, ~248 kg dry
Launch date (UTC)
2020-09-03 (5 years ago)
Launch vehicle
FALCON 9
Launch site
Air Force Eastern Test Range (AFETR)
Object type
Payload
Rocket body
Debris
Shape & HBR
Box + 1 Pan, 10.1 m
Radar Cross Section
13.562 m², Large (>1 m²)

Expand to show TLE details & history
Last TLE update: 8 hours ago

TLE from 8 hours ago
0 STARLINK-1770
1 46383U 20062BL  26038.26199284  .00059495  00000-0  77875-3 0  9993
2 46383  53.0435 104.2097 0002799 196.4361 163.6560 15.58055335300411
Epoch: 2026-02-07T06:17Z
TLE epoch observation values (Epoch: 2026-02-07T06:17:16.181Z)
Latitude
-0.00002°
Longitude
-127.49578°
Altitude
396.002 km
Speed
7.673 km/s
True Right ascension
06h 56m 50s
True Declination
0° 00' 00"
Sunlit
Object was in full shadow at epoch
Visualization orbit readout
Latitude
Unknown
Longitude
Unknown
Altitude
Unknown
Speed
Unknown
Apparent Right ascension
Unknown
Apparent Declination
Unknown
Sunlit
N/A
Visualization observer readout
Local Sidereal Time
16:01:09
Azimuth
Unknown
Elevation
Unknown
Doppler factor
Unknown
Orbital elements
Apogee altitude
395.46 km
Perigee altitude
391.669 km
Semi-major axis
6,771.701 km
Eccentricity
0.00028
Inclination
53.0435°
RAAN
104.2097°
Arg. of periapsis
196.4361°
True anomaly
163.66502°
Mean anomaly
163.656°
Eccentric anomaly
163.66051°
Mean motion
3.8949 °/min
Orbital period
92.43 mins
BSTAR
0.00077875
Loading maneuver chart data...
Computing Atmospheric mass density...
Loading historical data...
Loading historical data...
Loading historical data...
Loading historical data...
Loading historical data...
Loading historical data...
Loading historical data...

Documentation

Showing up to 5 results
|